This demonstration page uses our WeatherBlox Daily Observations layout. Learn more.

Left ArrowRight Arrow

Hourly Observations for April 28, 2018

Temp ( °F °C ) Dew Point ( °F °C ) Humidity (%) Winds ( mph kmh ) Pressure ( in mb ) Visibility ( mi km ) Precip ( " mm )
12:59 am 00:59 Clear 56 13.3 53 11.7 90 90 Calm 29.82 1010 10 16 0.00 0.00
1:59 am 01:59 Clear 55 12.8 52 11.1 90 90 Calm 29.81 1010 9 14 0.00 0.00
2:59 am 02:59 Clear 53 11.7 51 10.6 93 93 Calm 29.81 1010 9 14 0.00 0.00
3:59 am 03:59 Clear 53 11.7 51 10.6 93 93 Calm 29.82 1010 10 16 0.00 0.00
4:59 am 04:59 Clear 53 11.7 51 10.6 93 93 S 3 6 29.82 1010 7 11 0.00 0.00
5:59 am 05:59 Mostly Clear with Mist and Fog 52 11.1 51 10.6 97 97 SW 5 7 29.84 1010 6 10 0.00 0.00
6:01 am 06:01 Clear with Mist and Fog 52 11.1 51 10.6 97 97 SW 3 6 29.83 1010 2 3 0.00 0.00
6:04 am 06:04 Clear 52 11.1 51 10.6 97 97 SSW 3 6 29.83 1010 7 11 0.00 0.00
6:59 am 06:59 Partly Cloudy with Mist and Fog 55 12.8 53 11.7 93 93 S 3 6 29.85 1011 6 10 0.00 0.00
7:59 am 07:59 Mostly Sunny 61 16.1 56 13.3 84 84 SSW 8 13 29.86 1011 10 16 0.00 0.00
8:59 am 08:59 Mostly Sunny 66 18.9 55 12.8 68 68 SSW 6 9 29.86 1011 10 16 0.00 0.00
9:59 am 09:59 Mostly Sunny 69 20.6 54 12.2 59 59 SW 6 9 29.85 1011 10 16 0.00 0.00
10:59 am 10:59 Mostly Sunny 72 22.2 54 12.2 53 53 WSW 7 11 29.86 1011 10 16 0.00 0.00
11:59 am 11:59 Mostly Sunny 75 23.9 50 10 41 41 S 6 9 29.85 1011 10 16 0.00 0.00
12:59 pm 12:59 Partly Cloudy 78 25.6 47 8.3 33 33 WSW 8 13 29.83 1010 10 16 0.00 0.00
1:59 pm 13:59 Partly Cloudy 78 25.6 43 6.1 29 29 W 9 15 29.82 1010 10 16 0.00 0.00
2:59 pm 14:59 Mostly Cloudy 77 25 43 6.1 30 30 WSW 7 11 29.80 1009 10 16 0.00 0.00
3:59 pm 15:59 Mostly Cloudy 75 23.9 50 10 41 41 ENE 5 7 29.77 1008 10 16 0.00 0.00
4:59 pm 16:59 Mostly Cloudy 79 26.1 50 10 36 36 VRB 3 6 29.76 1008 10 16 0.00 0.00
5:59 pm 17:59 Partly Cloudy 79 26.1 45 7.2 30 30 NW 6 9 29.76 1008 10 16 0.00 0.00
6:59 pm 18:59 Mostly Sunny 77 25 42 5.6 29 29 WSW 9 15 29.76 1008 10 16 0.00 0.00
7:59 pm 19:59 Mostly Clear 71 21.7 44 6.7 38 38 SSW 5 7 29.78 1008 10 16 0.00 0.00
8:59 pm 20:59 Clear 65 18.3 47 8.3 52 52 S 5 7 29.80 1009 10 16 0.00 0.00
9:59 pm 21:59 Clear 67 19.4 51 10.6 57 57 S 6 9 29.80 1009 10 16 0.00 0.00
10:59 pm 22:59 Clear 66 18.9 52 11.1 61 61 S 7 11 29.81 1009 10 16 0.00 0.00
11:59 pm 23:59 Partly Cloudy 66 18.9 53 11.7 63 63 SSW 7 11 29.82 1010 10 16 0.00 0.00

Powered by AerisWeather